Temperature
18 18 18 18 18 18 18 18 18 18 18 17 17 17 17 17 17 17 17 17 17 17 17 17 18 18 18 18 18 18 18 18 18 18 18 18 18 18 18 18 18 18 18
18 18 18 18 18 18 18 18 17 17 17 17 17 17 17 17 17 17 17 17 17 17 17 17 17 17 18 18 18 18 18 18 18 18 18 18 18 18 18 18 18 18 18
18 18 18 18 18 17 17 18 17 17 17 17 17 17 17 17 17 17 17 17 17 17 17 17 17 17 17 17 18 18 18 18 17 17 17 17 18 18 18 18 18 18 18
17 17 17 17 17 17 17 17 17 17 17 17 17 17 17 17 17 17 17 17 17 17 17 17 17 17 17 17 17 17 17 17 17 17 17 17 17 18 18 18 18 18 18
17 17 17 17 17 17 17 17 17 17 17 17 17 17 17 16 16 16 17 17 17 17 17 17 17 17 17 17 17 17 17 17 17 17 17 17 17 17 17 17 17 18 18
17 17 17 17 17 17 17 17 17 17 17 17 17 17 16 16 16 16 16 16 16 16 17 17 17 17 17 17 17 17 17 17 17 17 17 17 17 17 17 17 17 17 17
17 17 17 17 17 17 17 17 17 17 17 17 17 17 16 16 16 16 16 16 16 16 16 16 17 17 17 17 17 17 17 17 17 17 17 17 17 17 17 17 17 17 17
17 17 17 17 17 17 17 17 17 17 17 17 17 17 17 17 16 16 16 16 16 16 16 16 17 17 17 17 17 17 17 16 16 16 17 17 17 16 17 17 17 17 17
18 17 17 17 17 17 17 17 17 17 17 17 17 17 17 16 16 16 16 16 16 16 16 17 17 17 17 17 16 16 16 16 16 16 16 16 16 16 16 16 16 16 17
18 18 17 17 17 17 17 17 17 17 17 17 17 17 16 16 16 16 16 16 16 16 16 16 17 16 16 16 16 16 16 16 16 16 16 16 16 16 16 16 16 16 16
18 18 18 17 17 17 17 17 17 17 17 17 16 16 16 16 16 16 16 16 16 16 16 16 16 16 16 16 16 16 16 16 16 16 16 16 16 16 16 16 16 16 16
18 18 18 18 17 17 17 17 17 17 17 17 16 16 16 16 16 16 16 16 16 16 16 16 16 16 16 16 16 16 16 16 16 16 16 15 15 15 15 15 16 16 16
18 18 18 18 18 17 17 17 17 17 17 17 17 17 17 17 17 16 16 16 16 16 16 16 16 16 16 16 16 16 16 16 16 15 15 15 15 15 15 15 15 15 15
19 18 18 18 18 18 17 17 17 17 17 17 17 17 17 17 17 17 17 16 16 16 16 16 16 16 16 16 16 16 16 16 15 15 15 15 15 15 15 15 15 15 15
19 18 18 18 18 18 18 17 17 17 17 17 17 17 17 17 17 17 17 17 16 16 16 16 16 16 16 16 16 16 16 15 15 15 15 15 15 15 15 15 15 15 15
19 18 18 18 18 18 18 18 17 17 17 17 17 17 17 17 17 17 17 17 16 16 16 16 16 16 16 16 16 16 16 15 15 15 15 15 15 15 15 15 15 15 15
19 19 18 18 18 18 18 18 17 17 17 17 17 17 17 17 17 17 17 17 17 16 16 16 16 16 16 16 16 16 16 15 15 15 15 15 15 15 15 15 15 15 14
19 19 18 18 18 18 18 17 17 17 17 17 17 17 17 17 17 17 17 16 16 16 16 16 16 16 16 16 16 16 16 15 15 15 15 15 14 14 14 14 14 14 14
19 19 19 18 18 18 18 17 17 17 17 17 17 17 17 17 17 17 17 16 16 16 16 16 16 16 16 16 16 15 15 15 15 15 15 15 14 14 14 14 14 14 14
19 19 19 18 18 18 18 17 17 17 17 17 17 17 17 17 17 17 16 16 16 16 16 16 16 16 16 16 16 15 15 15 15 15 15 15 14 14 14 14 14 14 14
19 19 19 18 18 18 18 17 17 17 17 17 17 17 17 17 17 16 16 16 16 16 16 16 16 16 16 16 16 15 15 15 15 15 15 15 14 14 14 14 14 14 14
19 19 18 18 18 18 17 17 17 17 17 17 17 17 16 16 16 16 16 16 16 16 16 16 16 16 16 16 16 15 15 15 15 15 15 15 14 14 14 14 14 14 14
19 19 18 18 18 18 17 17 17 17 17 17 17 16 16 16 16 16 16 16 16 16 16 15 15 15 15 15 15 15 15 15 15 15 15 15 14 14 14 14 14 14 14
19 19 19 18 18 17 17 17 17 17 17 16 16 16 16 16 16 16 16 16 16 15 15 15 15 15 15 15 15 15 15 15 15 15 14 14 14 14 14 14 14 14 13
19 19 18 18 18 17 17 17 17 17 17 16 16 16 16 16 16 16 16 16 16 15 15 15 15 15 15 15 15 15 15 15 15 15 14 14 14 14 14 14 13 13 13
19 18 18 18 18 17 17 17 17 17 17 16 16 16 16 16 16 16 16 16 15 15 15 15 15 15 15 15 15 15 15 15 15 15 14 14 14 14 14 14 13 13 13
Wind_Speed
7 10 10 10 10 11 10 10 10 9 9 9 9 9 10 10 11 11 11 12 12 12 12 12 12 13 13 13 12 12 11 10 9 9 9 9 9 9 9 9 8 8 9
9 12 11 11 10 10 10 10 9 9 9 9 9 9 9 10 10 10 11 11 11 11 12 12 12 12 12 11 11 11 10 9 8 7 8 9 9 9 9 10 9 9 9
11 13 12 11 10 10 10 10 9 9 9 9 9 9 9 9 10 10 11 11 11 11 11 12 11 11 11 11 10 10 10 9 8 7 7 7 9 10 10 10 10 10 10
12 13 12 11 11 10 10 10 10 9 9 9 9 9 9 9 9 10 10 11 11 11 11 11 11 11 11 10 10 9 9 9 9 8 8 10 9 10 11 10 10 10 10
12 13 12 11 11 10 10 10 10 10 10 10 9 9 9 10 9 10 10 10 10 11 11 11 11 11 10 10 9 9 9 9 9 10 11 12 11 11 11 11 11 11 10
12 14 12 11 11 11 11 10 10 10 10 10 10 10 10 10 10 10 10 9 10 10 10 10 10 10 10 9 9 9 9 9 9 10 12 12 11 12 12 11 11 11 11
11 13 12 11 11 11 11 11 11 10 10 10 10 10 10 10 10 10 9 9 9 9 10 10 10 10 10 9 8 8 9 9 8 10 12 12 12 13 12 11 11 10 10
10 12 12 11 11 11 10 10 10 10 10 10 10 10 10 10 10 9 10 10 10 10 10 10 10 9 9 8 8 8 10 10 10 11 13 12 13 13 12 11 11 11 10
8 9 10 11 11 11 10 10 9 9 9 9 10 10 9 9 10 10 10 10 10 10 10 9 9 8 7 6 6 7 9 10 10 10 12 12 12 13 12 12 11 11 11
6 7 8 9 11 11 10 9 9 8 8 8 8 8 8 8 9 9 10 9 9 9 8 7 7 6 4 4 3 5 7 9 11 13 11 11 13 13 12 12 12 11 11
6 6 7 7 7 9 10 9 9 8 8 8 7 7 7 7 8 9 10 9 8 7 6 5 4 4 2 1 2 4 6 8 12 12 11 12 13 13 12 12 12 12 12
5 5 6 6 6 7 7 8 6 6 6 6 6 5 4 6 8 9 9 8 7 6 5 4 3 3 3 1 2 4 6 11 11 11 11 13 13 13 13 12 12 12 12
5 5 6 6 6 6 5 5 4 4 3 3 5 6 5 6 6 8 7 7 6 6 4 4 3 3 3 4 5 7 10 11 11 11 12 14 14 14 14 14 13 13 13
5 5 5 5 5 6 6 4 3 3 2 3 3 4 5 3 2 3 4 4 4 3 3 2 1 4 6 7 8 9 10 9 11 11 12 14 14 14 14 14 14 13 13
6 4 5 4 4 5 5 2 4 3 2 4 2 3 5 3 2 3 3 4 4 4 3 2 4 6 6 7 8 9 8 9 11 11 12 15 14 14 14 13 13 13 13
6 4 4 4 4 6 4 2 3 3 3 3 1 1 4 4 3 3 3 3 3 3 3 4 4 4 4 5 5 6 7 8 9 10 11 12 14 14 13 13 13 13 13
6 5 4 4 4 4 4 3 3 2 3 3 2 2 3 4 3 4 3 3 3 5 5 5 5 4 4 4 4 5 5 6 7 8 9 9 11 12 12 13 13 13 12
5 5 6 4 5 5 4 3 2 2 3 3 3 2 3 4 6 5 3 2 4 5 4 3 2 3 3 3 3 3 3 4 5 6 7 9 9 9 10 11 12 12 12
5 6 6 5 4 4 4 3 2 2 3 2 3 3 2 4 5 5 3 2 4 4 3 2 3 3 3 3 2 2 2 3 3 5 5 7 9 10 10 10 11 11 11
4 6 6 5 5 5 3 2 2 2 2 2 3 3 4 4 4 5 2 3 4 3 3 2 3 2 2 1 2 3 2 2 2 3 4 6 7 8 9 8 8 9 10
4 5 6 5 4 4 3 2 2 2 1 1 2 4 3 3 3 4 2 2 3 3 2 2 2 2 1 1 2 2 1 2 3 2 2 3 5 7 7 7 7 7 7
4 4 5 5 4 4 3 3 2 2 2 2 2 2 2 1 2 3 3 2 2 3 2 2 2 1 0 0 1 1 1 2 2 2 2 2 3 5 5 6 8 8 7
5 4 5 5 5 4 4 3 2 2 2 2 2 1 2 2 3 4 2 3 2 2 2 2 2 1 0 2 1 1 1 1 0 1 1 2 2 2 3 5 7 7 8
4 4 4 5 5 4 4 3 3 2 2 2 2 2 1 2 3 3 2 2 2 2 2 2 2 1 1 1 1 1 1 2 1 0 2 1 2 3 2 3 5 7 9
4 3 3 4 5 4 4 3 2 2 2 2 2 3 2 2 3 3 2 2 1 1 1 1 1 1 1 1 0 1 1 1 1 2 0 1 1 1 1 3 5 6 8
4 4 3 4 4 4 4 4 3 2 2 3 2 2 2 2 2 2 2 1 1 1 1 1 2 1 1 1 1 1 1 1 0 1 1 1 1 1 1 2 4 5 6
Wind_Direction
95 93 90 89 84 82 80 79 77 76 77 77 80 79 75 75 72 70 70 70 71 71 69 67 66 64 62 60 59 58 58 59 63 71 70 69 64 59 56 58 63 70 79
105 98 92 88 86 84 82 80 77 76 77 81 84 83 80 78 78 75 72 72 73 71 69 69 66 64 61 58 56 55 52 50 54 65 71 70 65 61 60 63 66 72 74
104 103 94 88 87 84 82 80 76 76 77 78 86 87 85 82 80 78 74 72 73 74 71 68 66 66 63 58 55 51 46 41 42 50 57 72 70 63 64 68 71 72 73
97 97 95 92 88 83 79 76 75 76 76 79 87 90 90 89 85 80 76 74 74 75 73 71 68 66 64 58 53 47 40 36 35 37 57 61 63 67 67 68 69 70 72
93 96 97 95 91 86 80 77 79 78 81 83 89 93 91 90 88 82 77 76 77 77 75 72 68 67 65 60 53 42 32 29 33 45 62 65 62 66 68 69 69 71 72
99 100 102 99 93 88 85 82 81 84 85 86 90 94 93 91 90 86 81 79 80 78 75 72 68 67 64 59 49 36 25 22 38 59 65 64 63 65 68 70 70 70 71
106 108 110 105 100 94 89 85 85 86 87 89 93 95 93 92 92 89 86 84 81 79 77 74 71 68 63 56 45 34 24 24 57 67 70 67 64 63 66 69 70 70 70
110 114 118 115 111 104 98 93 91 91 89 89 94 95 96 96 94 91 88 86 83 82 81 77 73 69 63 57 48 34 23 26 53 69 74 68 66 63 62 64 69 70 72
110 120 130 132 124 116 109 105 101 102 102 99 102 105 106 107 105 99 90 89 87 85 86 85 81 77 70 62 48 34 29 35 42 58 69 67 66 64 63 62 65 69 70
118 125 127 130 136 132 125 118 115 116 120 120 120 126 126 124 120 111 102 97 94 93 93 95 98 95 87 71 46 30 35 45 58 61 62 65 67 65 64 64 66 67 68
120 120 125 124 126 127 131 132 138 138 140 145 151 161 163 154 139 120 111 114 113 115 117 122 131 134 125 88 27 24 47 67 72 66 59 64 67 67 65 65 68 68 68
127 123 121 121 126 122 115 127 143 139 146 162 153 156 143 111 113 119 127 135 141 146 148 168 176 185 193 157 80 56 70 70 69 67 62 67 67 66 65 66 68 70 70
133 126 118 123 124 120 116 117 107 109 140 125 113 126 114 111 128 134 145 157 168 171 172 169 199 192 139 102 90 84 74 72 70 66 65 69 69 67 65 66 67 69 70
114 113 115 119 121 119 110 110 127 117 112 97 103 113 114 106 106 111 121 132 142 126 100 81 72 69 67 71 76 79 79 84 84 80 72 72 70 69 67 67 66 67 68
115 110 113 118 121 114 105 144 125 111 90 100 96 122 118 116 109 96 100 93 87 89 87 66 52 55 54 51 60 71 76 83 91 91 82 75 73 70 69 68 67 67 67
121 120 116 131 116 113 122 123 97 110 124 105 85 114 119 121 121 116 96 87 84 92 82 73 72 65 61 64 58 62 73 81 90 102 103 87 77 72 69 69 67 67 66
139 137 131 123 109 103 97 82 92 93 103 101 86 54 83 94 96 94 90 88 86 84 77 69 66 64 71 69 65 65 68 78 90 97 109 110 95 80 76 72 67 65 64
145 144 138 134 128 112 104 82 71 76 84 92 93 60 71 81 87 85 83 91 91 80 80 78 64 66 65 65 62 56 65 70 75 90 106 108 110 102 90 79 71 65 63
155 149 136 137 133 118 119 124 92 78 84 95 94 64 69 75 86 93 84 99 99 86 75 74 66 68 73 72 77 73 66 76 69 68 81 96 104 114 113 98 82 71 65
153 145 138 143 145 135 129 118 103 91 89 78 84 71 53 59 83 94 94 83 87 79 65 65 75 65 78 81 79 85 95 104 78 60 62 74 84 98 109 116 109 88 72
147 135 130 137 142 132 126 119 114 109 92 75 85 80 66 47 65 87 91 84 87 95 96 88 85 79 63 90 78 54 41 76 99 86 65 71 73 77 92 101 105 108 95
142 137 142 143 137 127 130 137 140 138 127 106 80 74 82 55 76 92 103 94 94 103 100 99 98 85 329 17 121 115 71 24 20 104 100 86 87 83 75 81 88 91 93
147 149 148 141 136 129 128 127 118 85 92 94 99 97 69 55 69 77 80 111 132 134 142 123 112 109 350 332 34 96 115 153 337 12 106 112 102 91 79 77 81 84 82
154 149 142 141 132 125 131 133 138 134 132 134 130 131 128 103 90 100 103 103 126 127 137 161 147 137 123 313 337 12 85 127 134 57 354 54 100 99 89 79 79 83 87
139 136 137 132 125 130 136 130 139 134 137 123 115 113 112 97 92 90 85 73 102 125 140 142 125 128 145 185 257 5 8 11 50 116 185 343 29 69 101 95 90 88 91
129 126 122 131 132 135 139 135 143 131 123 113 103 108 111 105 95 86 87 83 120 140 142 155 138 133 105 80 33 42 83 94 94 103 161 179 158 209 134 101 103 103 102
Height
1521 1521 1521 1521 1521 1522 1522 1522 1523 1523 1523 1523 1524 1525 1525 1526 1527 1527 1528 1528 1529 1529 1530 1530 1530 1530 1531 1531 1531 1531 1531 1532 1532 1532 1532 1532 1532 1532 1532 1533 1533 1533 1534
1522 1522 1522 1522 1522 1523 1523 1523 1524 1524 1524 1524 1524 1525 1526 1527 1528 1529 1529 1530 1530 1531 1531 1531 1532 1532 1532 1532 1532 1533 1533 1533 1533 1534 1534 1533 1534 1533 1533 1534 1534 1534 1535
1523 1522 1523 1523 1523 1524 1524 1524 1525 1525 1525 1525 1525 1526 1527 1528 1529 1530 1530 1531 1531 1532 1532 1533 1533 1533 1533 1534 1534 1534 1535 1535 1535 1535 1535 1535 1534 1534 1534 1534 1535 1535 1535
1524 1524 1524 1524 1525 1525 1525 1525 1526 1526 1526 1526 1527 1528 1528 1529 1530 1531 1531 1532 1533 1533 1534 1534 1534 1534 1535 1535 1535 1536 1536 1536 1536 1536 1536 1536 1535 1535 1535 1535 1535 1536 1536
1525 1525 1525 1525 1526 1526 1526 1526 1527 1527 1527 1528 1528 1529 1530 1531 1531 1532 1532 1533 1534 1534 1535 1535 1535 1536 1536 1536 1537 1537 1537 1537 1537 1537 1537 1537 1536 1536 1536 1536 1536 1536 1537
1526 1526 1527 1527 1527 1527 1527 1528 1528 1528 1529 1529 1530 1530 1531 1532 1532 1533 1534 1534 1535 1536 1536 1537 1537 1537 1537 1538 1538 1538 1539 1539 1539 1538 1538 1538 1537 1537 1537 1537 1537 1537 1537
1528 1528 1528 1528 1529 1529 1529 1529 1529 1530 1530 1530 1531 1532 1532 1533 1534 1535 1535 1536 1536 1537 1538 1538 1538 1539 1539 1539 1539 1540 1540 1540 1540 1539 1539 1538 1538 1538 1537 1537 1537 1538 1538
1529 1529 1529 1530 1530 1530 1531 1531 1531 1531 1532 1532 1533 1534 1534 1535 1536 1537 1537 1537 1538 1539 1539 1539 1540 1540 1541 1541 1541 1541 1541 1541 1541 1540 1540 1539 1539 1538 1538 1538 1538 1538 1538
1530 1531 1531 1531 1532 1532 1532 1532 1533 1533 1534 1534 1535 1536 1536 1537 1538 1538 1539 1539 1540 1540 1541 1541 1542 1542 1542 1542 1542 1542 1542 1542 1542 1541 1541 1540 1540 1539 1539 1539 1539 1539 1539
1532 1532 1533 1533 1533 1534 1534 1534 1535 1535 1536 1536 1537 1538 1539 1539 1540 1540 1541 1541 1542 1542 1543 1543 1543 1544 1544 1544 1544 1544 1544 1544 1543 1543 1542 1541 1541 1540 1540 1540 1539 1539 1539
1533 1534 1534 1535 1535 1536 1536 1536 1537 1537 1538 1538 1539 1540 1541 1541 1542 1542 1543 1543 1544 1544 1544 1545 1545 1545 1545 1546 1546 1546 1545 1545 1544 1544 1543 1543 1542 1541 1541 1540 1540 1540 1540
1534 1535 1536 1536 1537 1537 1538 1538 1538 1539 1540 1540 1541 1542 1543 1544 1544 1545 1545 1545 1545 1546 1546 1547 1547 1547 1547 1547 1548 1547 1547 1546 1545 1545 1544 1544 1543 1543 1542 1542 1541 1541 1540
1535 1536 1536 1537 1538 1538 1539 1539 1540 1541 1542 1543 1543 1544 1544 1545 1546 1546 1546 1547 1547 1547 1548 1548 1548 1548 1549 1549 1549 1549 1549 1548 1547 1546 1546 1545 1545 1544 1543 1543 1542 1542 1541
1536 1537 1537 1538 1539 1539 1540 1541 1541 1542 1543 1544 1545 1546 1546 1547 1547 1548 1548 1548 1549 1549 1549 1550 1550 1550 1551 1551 1551 1550 1550 1549 1549 1548 1547 1547 1546 1545 1545 1544 1544 1543 1542
1536 1537 1538 1539 1539 1540 1541 1542 1542 1543 1544 1545 1546 1547 1547 1548 1548 1549 1549 1550 1550 1551 1551 1551 1551 1552 1552 1552 1552 1552 1551 1551 1550 1550 1549 1549 1548 1547 1546 1546 1545 1545 1544
1536 1538 1539 1540 1540 1541 1542 1543 1543 1544 1545 1546 1547 1548 1548 1549 1549 1550 1550 1550 1551 1551 1552 1552 1553 1553 1553 1553 1553 1553 1553 1553 1552 1551 1551 1550 1550 1549 1548 1547 1547 1546 1546
1536 1538 1539 1540 1541 1542 1542 1543 1544 1545 1545 1546 1547 1548 1549 1550 1550 1550 1551 1551 1552 1552 1553 1553 1554 1554 1554 1554 1554 1554 1554 1554 1554 1553 1552 1552 1551 1551 1550 1549 1549 1548 1548
1536 1537 1539 1540 1541 1542 1543 1544 1544 1545 1546 1547 1548 1548 1549 1550 1550 1551 1551 1552 1552 1553 1553 1554 1554 1555 1555 1555 1555 1556 1555 1555 1555 1555 1554 1553 1553 1552 1551 1551 1550 1550 1549
1536 1537 1539 1540 1542 1542 1543 1544 1545 1545 1546 1547 1548 1549 1549 1550 1550 1551 1551 1552 1552 1553 1554 1554 1555 1555 1556 1556 1556 1556 1556 1556 1556 1556 1556 1555 1554 1554 1553 1552 1551 1551 1551
1536 1537 1539 1540 1542 1543 1543 1544 1545 1546 1547 1547 1548 1549 1549 1550 1550 1551 1551 1552 1553 1553 1554 1554 1555 1555 1556 1556 1557 1557 1557 1557 1557 1557 1557 1556 1556 1555 1554 1554 1553 1552 1552
1535 1537 1538 1540 1541 1542 1543 1544 1545 1546 1547 1547 1548 1549 1549 1550 1550 1551 1551 1552 1553 1553 1554 1554 1555 1555 1556 1557 1557 1557 1558 1558 1558 1558 1558 1557 1557 1557 1556 1555 1554 1553 1553
1535 1537 1538 1539 1541 1542 1543 1544 1545 1546 1547 1548 1548 1548 1549 1550 1550 1551 1551 1551 1552 1553 1553 1554 1555 1555 1556 1556 1557 1557 1558 1559 1558 1559 1558 1558 1558 1557 1557 1556 1555 1554 1553
1535 1536 1538 1539 1540 1541 1542 1544 1545 1546 1547 1547 1548 1548 1549 1549 1550 1550 1551 1551 1552 1552 1553 1554 1554 1555 1556 1556 1557 1557 1557 1558 1558 1559 1559 1558 1558 1558 1557 1557 1556 1555 1554
1534 1535 1537 1538 1539 1540 1542 1543 1544 1545 1546 1547 1548 1548 1548 1549 1549 1550 1550 1551 1551 1552 1553 1553 1554 1555 1555 1555 1556 1556 1557 1557 1558 1558 1559 1559 1558 1558 1557 1557 1556 1555 1554
1533 1534 1536 1537 1539 1540 1541 1542 1543 1544 1546 1547 1547 1548 1548 1548 1549 1549 1550 1550 1551 1551 1552 1552 1553 1554 1554 1555 1555 1555 1556 1556 1557 1557 1558 1559 1558 1558 1557 1556 1556 1555 1554
1532 1533 1535 1536 1538 1539 1540 1541 1543 1544 1545 1546 1547 1547 1547 1548 1548 1548 1549 1549 1550 1551 1551 1552 1552 1553 1553 1553 1554 1555 1555 1555 1556 1556 1557 1557 1557 1557 1557 1556 1555 1555 1554